Melville Hall, Dominica

7:59 PM AST on April 24, 2018 (GMT -0400)
Melville Hall

Weather History for TDPD - March, 2013

Change the Weather History Date:

Tuesday, March 19, 2013

  Actual Average Record
Temperature  
Mean Temperature 79 °F -  
Max Temperature 84 °F 82 °F 86 °F (2005)
Min Temperature 74 °F 73 °F 68 °F (2018)
Cooling Degree Days 14    
Growing Degree Days 29 (Base 50)    
Moisture  
Dew Point 70 °F    
Average Humidity 74    
Maximum Humidity 89    
Minimum Humidity 55    
Precipitation  
Precipitation 0.12 in 0.17 in - ()
Sea Level Pressure  
Sea Level Pressure 29.97 in    
Wind  
Wind Speed 10 mph ()    
Max Wind Speed 17 mph    
Max Gust Speed 25 mph    
Visibility 7.1 miles    
Events Rain    
Averages and records for this station are not official NWS values.
T = Trace of Precipitation, MM = Missing Value Source: Averaged Metar Reports

Daily Weather History Graph

Daily Weather History Graph

Search for Another Location

Airport or City:

Astronomy

Mar. 19, 2013 Rise Set
Actual Time 6:09 AM AST 6:15 PM AST
Civil Twilight 5:48 AM AST 6:37 PM AST
Nautical Twilight 5:23 AM AST 7:02 PM AST
Astronomical Twilight 4:58 AM AST 7:27 PM AST
Moon 11:45 AM AST (3/19) 12:09 AM AST (3/19)
Length of Visible Light 12h 48m
Length of Day
12h 06m
Waxing Crescent, 49% of the Moon is Illuminated
Mar 19
Waxing Crescent
Mar 19
First Quarter
Mar 27
Full
Apr 3
Last Quarter
Apr 10
New

Hourly Weather History & Observations

Time (AST) Temp. Heat Index Dew Point Humidity Pressure Visibility Wind Dir Wind Speed Gust Speed Precip Events Conditions
6:00 AM 77.0 °F - 68.0 °F 74% 29.95 in 6.2 mi East 13.8 mph - N/A   Scattered Clouds
7:00 AM 78.8 °F - 69.8 °F 74% 29.98 in 6.2 mi East 13.8 mph - N/A   Mostly Cloudy
8:00 AM 78 °F - 70 °F 69% 30.01 in 5 mi ESE 12.7 mph - -   Mostly Cloudy
8:00 AM 78.8 °F - 69.8 °F 74% 30.01 in 5.0 mi ESE 12.7 mph 25.3 mph N/A   Scattered Clouds
9:00 AM 80.6 °F 83.2 °F 68.0 °F 65% 30.01 in 6.2 mi ESE 11.5 mph - N/A   Scattered Clouds
10:00 AM 82.4 °F 85.4 °F 68.0 °F 62% 30.01 in 6.2 mi ESE 11.5 mph - N/A   Mostly Cloudy
11:00 AM 77 °F - 71 °F 77% 30.02 in 5 mi East 17.3 mph - - Rain Light Rain Showers
11:00 AM 77.0 °F - 71.6 °F 83% 30.01 in 5.0 mi East 17.3 mph - N/A Rain Light Rain Showers
12:00 PM 84.2 °F 89.6 °F 71.6 °F 66% 30.01 in 6.2 mi East 13.8 mph - N/A   Mostly Cloudy
1:00 PM 84.2 °F 87.3 °F 68.0 °F 58% 29.98 in 6.2 mi ESE 11.5 mph - N/A   Mostly Cloudy
2:00 PM 83 °F - 69 °F 55% 29.97 in 17 mi East 11.5 mph - -   Partly Cloudy
2:00 PM 82.4 °F 86.3 °F 69.8 °F 66% 29.95 in 6.2 mi East 11.5 mph - N/A   Mostly Cloudy
3:00 PM 80.6 °F 83.9 °F 69.8 °F 70% 29.92 in 6.2 mi East 12.7 mph - N/A Rain Light Rain Showers
4:00 PM 75.2 °F - 69.8 °F 83% 29.92 in 5.0 mi SW 3.5 mph - N/A Rain Light Rain Showers
5:00 PM 77 °F - 72 °F 81% 29.94 in 14 mi WSW 2.3 mph - - Rain Light Rain Showers
5:00 PM 77.0 °F - 71.6 °F 83% 29.92 in 6.2 mi WSW 2.3 mph - N/A   Scattered Clouds
6:00 PM 75.2 °F - 71.6 °F 89% 29.92 in 5.0 mi East 15.0 mph - N/A   Scattered Clouds
7:00 PM 77.0 °F - 69.8 °F 78% 29.95 in 6.2 mi SSE 3.5 mph - N/A   Mostly Cloudy
8:00 PM 74 °F - 71 °F 86% 29.96 in 14 mi West 4.6 mph - -   Mostly Cloudy
8:00 PM 75.2 °F - 71.6 °F 89% 29.95 in 6.2 mi West 4.6 mph - N/A   Mostly Cloudy
9:00 PM 78.8 °F - 69.8 °F 74% 29.95 in 6.2 mi SE 4.6 mph - N/A   Mostly Cloudy